APG355 RPVK-RPLL

Flight info

Callsign APG355
Flight time 0h 59m
Altitude 24000
Route MINOR4R MINOR B473 LAIYA LAIYA3R
Aircraft A320/M-SDE3FGHIRWY/LB1

Departure

Time 2026-04-25 13:53
Airport Kalibo International Airport (RPVK)

Arrival

Time 2026-04-25 14:53
Airport Ninoy Aquino International Airport (RPLL)
Time Latitude Longitude Altitude Speed Heading
2026-04-25 13:31 11.68573 122.38153 24 ft 0 kts 349°
2026-04-25 13:48 11.68574 122.38153 10 ft 0 kts 350°
2026-04-25 13:48 11.68576 122.38156 21 ft 0 kts 34°
2026-04-25 13:49 11.68575 122.38161 26 ft 1 kts 86°
2026-04-25 13:49 11.68569 122.38172 19 ft 4 kts 110°
2026-04-25 13:49 11.68568 122.38177 19 ft 0 kts 110°
2026-04-25 13:50 11.68562 122.38193 20 ft 4 kts 111°
2026-04-25 13:50 11.68553 122.38216 21 ft 4 kts 110°
2026-04-25 13:50 11.68562 122.38265 21 ft 9 kts 60°
2026-04-25 13:50 11.68597 122.38310 23 ft 9 kts 47°
2026-04-25 13:51 11.68652 122.38361 21 ft 10 kts 30°
2026-04-25 13:51 11.68682 122.38391 24 ft 1 kts 113°
2026-04-25 13:51 11.68677 122.38390 24 ft 2 kts 171°
2026-04-25 13:51 11.68650 122.38369 24 ft 0 kts 227°
2026-04-25 13:53 11.68619 122.38333 21 ft 34 kts 229°
2026-04-25 13:53 11.68261 122.37920 19 ft 119 kts 229°
2026-04-25 13:53 11.67575 122.37119 88 ft 179 kts 228°
2026-04-25 13:53 11.66722 122.36132 815 ft 191 kts 227°
2026-04-25 13:54 11.65713 122.35216 1657 ft 195 kts 200°
2026-04-25 13:54 11.64441 122.35125 2337 ft 183 kts 153°
2026-04-25 13:54 11.63551 122.35977 2797 ft 180 kts 109°
2026-04-25 13:54 11.63404 122.37255 3199 ft 189 kts 77°
2026-04-25 13:55 11.64087 122.38433 3576 ft 207 kts 38°
2026-04-25 13:55 11.65498 122.38875 4058 ft 226 kts
2026-04-25 13:55 11.67131 122.38722 4514 ft 246 kts 353°
2026-04-25 13:55 11.68867 122.38367 4973 ft 263 kts 352°
2026-04-25 13:56 11.70713 122.37974 5504 ft 277 kts 351°
2026-04-25 13:56 11.72617 122.37559 6244 ft 282 kts 351°
2026-04-25 13:56 11.74551 122.37131 7004 ft 285 kts 350°
2026-04-25 13:56 11.76496 122.36700 7748 ft 288 kts 350°
2026-04-25 13:57 11.78460 122.36266 8481 ft 291 kts 349°
2026-04-25 13:57 11.79777 122.35975 8971 ft 293 kts 349°
2026-04-25 13:57 11.82457 122.35385 9925 ft 297 kts 349°
2026-04-25 13:57 11.84508 122.34934 10412 ft 308 kts 349°
2026-04-25 13:58 11.86659 122.34461 10715 ft 325 kts 349°
2026-04-25 13:58 11.88927 122.33961 11006 ft 341 kts 349°
2026-04-25 13:58 11.91299 122.33441 11306 ft 355 kts 349°
2026-04-25 13:58 11.93740 122.32909 11846 ft 361 kts 348°
2026-04-25 13:59 11.96202 122.32372 12443 ft 364 kts 348°
2026-04-25 13:59 11.98701 122.31823 13026 ft 368 kts 348°
2026-04-25 13:59 12.01221 122.31270 13605 ft 372 kts 348°
2026-04-25 13:59 12.03766 122.30710 14111 ft 376 kts 348°
2026-04-25 14:00 12.05465 122.30335 14455 ft 378 kts 348°
2026-04-25 14:00 12.08908 122.29575 15169 ft 381 kts 348°
2026-04-25 14:00 12.11506 122.29006 15694 ft 383 kts 348°
2026-04-25 14:00 12.14125 122.28437 16204 ft 385 kts 348°
2026-04-25 14:01 12.16755 122.27863 16706 ft 388 kts 348°
2026-04-25 14:01 12.19372 122.27292 17199 ft 391 kts 349°
2026-04-25 14:01 12.22040 122.26709 17693 ft 394 kts 349°
2026-04-25 14:01 12.24726 122.26120 18177 ft 397 kts 349°
2026-04-25 14:02 12.27438 122.25523 18603 ft 400 kts 349°
2026-04-25 14:02 12.30163 122.24923 19006 ft 403 kts 348°
2026-04-25 14:02 12.32914 122.24319 19408 ft 406 kts 348°
2026-04-25 14:02 12.33851 122.24110 19544 ft 407 kts 347°
2026-04-25 14:03 12.38262 122.22381 20226 ft 412 kts 330°
2026-04-25 14:03 12.40677 122.20787 20642 ft 415 kts 325°
2026-04-25 14:03 12.43069 122.19118 21053 ft 418 kts 325°
2026-04-25 14:03 12.45478 122.17441 21467 ft 420 kts 325°
2026-04-25 14:04 12.47905 122.15758 21880 ft 423 kts 325°
2026-04-25 14:04 12.50351 122.14063 22292 ft 425 kts 325°
2026-04-25 14:04 12.52804 122.12363 22689 ft 427 kts 325°
2026-04-25 14:04 12.55267 122.10655 23082 ft 429 kts 324°
2026-04-25 14:05 12.57747 122.08933 23449 ft 432 kts 324°
2026-04-25 14:05 12.60239 122.07204 23784 ft 433 kts 324°
2026-04-25 14:05 12.62732 122.05473 23919 ft 433 kts 324°
2026-04-25 14:05 12.65214 122.03747 23964 ft 431 kts 324°
2026-04-25 14:06 12.67658 122.02042 23960 ft 430 kts 324°
2026-04-25 14:06 12.70136 122.00313 23960 ft 431 kts 324°
2026-04-25 14:06 12.72616 121.98583 23963 ft 430 kts 324°
2026-04-25 14:06 12.75089 121.96858 23963 ft 430 kts 324°
2026-04-25 14:07 12.77564 121.95132 23967 ft 430 kts 324°
2026-04-25 14:07 12.80039 121.93405 23966 ft 430 kts 324°
2026-04-25 14:07 12.82509 121.91685 23965 ft 430 kts 324°
2026-04-25 14:07 12.84987 121.89961 23966 ft 430 kts 324°
2026-04-25 14:08 12.87461 121.88238 23968 ft 430 kts 324°
2026-04-25 14:08 12.89942 121.86511 23967 ft 430 kts 324°
2026-04-25 14:08 12.92422 121.84785 23969 ft 430 kts 324°
2026-04-25 14:08 12.94897 121.83061 23969 ft 430 kts 324°
2026-04-25 14:09 12.97377 121.81334 23972 ft 430 kts 324°
2026-04-25 14:09 12.99852 121.79610 23972 ft 430 kts 324°
2026-04-25 14:09 13.02330 121.77882 23975 ft 430 kts 324°
2026-04-25 14:09 13.03132 121.77322 23976 ft 430 kts 324°
2026-04-25 14:10 13.07244 121.74442 23979 ft 430 kts 324°
2026-04-25 14:10 13.09714 121.72709 23981 ft 430 kts 324°
2026-04-25 14:10 13.12185 121.70980 23979 ft 430 kts 324°
2026-04-25 14:10 13.14661 121.69249 23981 ft 431 kts 324°
2026-04-25 14:11 13.17146 121.67519 23973 ft 431 kts 324°
2026-04-25 14:11 13.19623 121.65789 23972 ft 430 kts 324°
2026-04-25 14:11 13.22102 121.64054 23974 ft 430 kts 324°
2026-04-25 14:11 13.24571 121.62326 23972 ft 430 kts 324°
2026-04-25 14:12 13.27045 121.60593 23972 ft 430 kts 324°
2026-04-25 14:12 13.29516 121.58863 23973 ft 430 kts 324°
2026-04-25 14:12 13.31987 121.57131 23974 ft 430 kts 324°
2026-04-25 14:12 13.34457 121.55400 23974 ft 430 kts 324°
2026-04-25 14:13 13.36930 121.53669 23977 ft 430 kts 324°
2026-04-25 14:13 13.39392 121.51949 23865 ft 424 kts 324°
2026-04-25 14:13 13.41799 121.50269 23649 ft 417 kts 324°
2026-04-25 14:13 13.44191 121.48592 23414 ft 416 kts 324°
2026-04-25 14:14 13.46543 121.46937 23161 ft 414 kts 323°
2026-04-25 14:14 13.48915 121.45266 22906 ft 412 kts 324°
2026-04-25 14:14 13.51278 121.43607 22649 ft 411 kts 324°
2026-04-25 14:14 13.53633 121.41956 22398 ft 409 kts 324°
2026-04-25 14:15 13.55975 121.40311 22149 ft 407 kts 324°
2026-04-25 14:15 13.56762 121.39758 22067 ft 406 kts 324°
2026-04-25 14:15 13.60635 121.37048 21656 ft 404 kts 324°
2026-04-25 14:15 13.62962 121.35431 21417 ft 402 kts 324°
2026-04-25 14:16 13.65272 121.33827 21172 ft 400 kts 324°
2026-04-25 14:16 13.67581 121.32224 20931 ft 399 kts 324°
2026-04-25 14:16 13.69872 121.30632 20694 ft 397 kts 324°
2026-04-25 14:16 13.72160 121.29041 20454 ft 396 kts 324°
2026-04-25 14:17 13.73666 121.27994 20305 ft 395 kts 324°
2026-04-25 14:17 13.76708 121.25891 19987 ft 392 kts 326°
2026-04-25 14:17 13.79010 121.24410 19583 ft 389 kts 327°
2026-04-25 14:17 13.80533 121.23442 19281 ft 387 kts 327°
2026-04-25 14:18 13.83581 121.21499 18686 ft 383 kts 327°
2026-04-25 14:18 13.85075 121.20543 18397 ft 382 kts 327°
2026-04-25 14:18 13.87316 121.19105 18045 ft 375 kts 327°
2026-04-25 14:18 13.89470 121.17723 17909 ft 353 kts 327°
2026-04-25 14:19 13.91499 121.16423 17563 ft 337 kts 327°
2026-04-25 14:19 13.93489 121.15148 17175 ft 334 kts 327°
2026-04-25 14:19 13.95449 121.13894 16834 ft 331 kts 327°
2026-04-25 14:19 13.98033 121.12244 16348 ft 328 kts 327°
2026-04-25 14:20 13.99344 121.11408 16103 ft 327 kts 327°
2026-04-25 14:20 14.00621 121.10594 15866 ft 326 kts 327°
2026-04-25 14:20 14.03161 121.08970 15395 ft 323 kts 327°
2026-04-25 14:20 14.05064 121.07748 15044 ft 322 kts 327°
2026-04-25 14:21 14.06958 121.06532 14696 ft 320 kts 327°
2026-04-25 14:21 14.08842 121.05320 14350 ft 319 kts 327°
2026-04-25 14:21 14.10712 121.04112 14005 ft 317 kts 327°
2026-04-25 14:21 14.12580 121.02901 13657 ft 316 kts 327°
2026-04-25 14:22 14.14435 121.01697 13285 ft 314 kts 327°
2026-04-25 14:22 14.16280 121.00499 12919 ft 312 kts 327°
2026-04-25 14:22 14.18113 120.99306 12559 ft 310 kts 327°
2026-04-25 14:22 14.19924 120.98123 12208 ft 308 kts 327°
2026-04-25 14:23 14.21726 120.96943 11859 ft 305 kts 327°
2026-04-25 14:23 14.23513 120.95769 11508 ft 303 kts 327°
2026-04-25 14:23 14.25284 120.94601 11165 ft 301 kts 327°
2026-04-25 14:23 14.26758 120.93623 10873 ft 299 kts 327°
2026-04-25 14:24 14.28483 120.92476 10518 ft 297 kts 327°
2026-04-25 14:24 14.30212 120.91319 10183 ft 295 kts 327°
2026-04-25 14:24 14.31925 120.90168 9833 ft 293 kts 327°
2026-04-25 14:24 14.33622 120.89023 9445 ft 291 kts 327°
2026-04-25 14:25 14.35311 120.87880 9039 ft 289 kts 327°
2026-04-25 14:25 14.36986 120.86741 8634 ft 288 kts 327°
2026-04-25 14:25 14.38653 120.85602 8221 ft 287 kts 327°
2026-04-25 14:25 14.39751 120.84849 7957 ft 286 kts 327°
2026-04-25 14:26 14.41952 120.83329 7414 ft 284 kts 327°
2026-04-25 14:26 14.43588 120.82195 7017 ft 283 kts 327°
2026-04-25 14:26 14.45214 120.81064 6611 ft 281 kts 327°
2026-04-25 14:26 14.46831 120.79930 6194 ft 280 kts 327°
2026-04-25 14:27 14.48440 120.78798 5739 ft 279 kts 327°
2026-04-25 14:27 14.50044 120.77670 5295 ft 279 kts 327°
2026-04-25 14:27 14.51640 120.76547 4852 ft 278 kts 327°
2026-04-25 14:27 14.53237 120.75420 4402 ft 277 kts 327°
2026-04-25 14:28 14.54958 120.74566 3980 ft 273 kts 345°
2026-04-25 14:28 14.56778 120.74028 3533 ft 271 kts 347°
2026-04-25 14:28 14.58573 120.73530 3128 ft 271 kts 347°
2026-04-25 14:28 14.60388 120.73026 2997 ft 271 kts 347°
2026-04-25 14:29 14.62211 120.72520 2999 ft 271 kts 347°
2026-04-25 14:29 14.64039 120.72030 2999 ft 270 kts 352°
2026-04-25 14:29 14.65889 120.72048 3001 ft 264 kts 15°
2026-04-25 14:29 14.67534 120.72812 2999 ft 259 kts 39°
2026-04-25 14:30 14.68734 120.74183 2997 ft 257 kts 62°
2026-04-25 14:30 14.69229 120.77477 3004 ft 219 kts 103°
2026-04-25 14:30 14.68665 120.78922 3003 ft 219 kts 121°
2026-04-25 14:31 14.67827 120.80234 3006 ft 219 kts 122°
2026-04-25 14:31 14.66988 120.81548 3004 ft 219 kts 122°
2026-04-25 14:31 14.66156 120.82860 3006 ft 218 kts 122°
2026-04-25 14:31 14.65326 120.84174 3003 ft 219 kts 122°
2026-04-25 14:32 14.64492 120.85491 2909 ft 219 kts 121°
2026-04-25 14:32 14.63666 120.86800 2805 ft 217 kts 121°
2026-04-25 14:32 14.62756 120.88029 2712 ft 211 kts 129°
2026-04-25 14:32 14.61826 120.89117 2733 ft 192 kts 129°
2026-04-25 14:33 14.60974 120.90124 2616 ft 185 kts 128°
2026-04-25 14:33 14.60145 120.91106 2375 ft 176 kts 128°
2026-04-25 14:33 14.59396 120.91990 2175 ft 156 kts 128°
2026-04-25 14:33 14.58715 120.92792 1974 ft 142 kts 128°
2026-04-25 14:34 14.58060 120.93571 1788 ft 145 kts 128°
2026-04-25 14:34 14.57408 120.94347 1594 ft 143 kts 128°
2026-04-25 14:34 14.56763 120.95111 1400 ft 141 kts 128°
2026-04-25 14:34 14.56113 120.95880 1212 ft 142 kts 128°
2026-04-25 14:35 14.55466 120.96646 1029 ft 142 kts 128°
2026-04-25 14:35 14.54827 120.97405 841 ft 143 kts 130°
2026-04-25 14:35 14.54190 120.98178 660 ft 140 kts 129°
2026-04-25 14:35 14.53581 120.98977 457 ft 142 kts 127°
2026-04-25 14:36 14.52945 120.99756 257 ft 143 kts 133°
2026-04-25 14:36 14.52264 121.00500 80 ft 142 kts 133°
2026-04-25 14:36 14.51582 121.01201 204 ft 145 kts 134°
2026-04-25 14:36 14.50828 121.01944 871 ft 153 kts 134°
2026-04-25 14:37 14.50077 121.02695 1702 ft 149 kts 132°
2026-04-25 14:37 14.49328 121.03478 2285 ft 156 kts 131°
2026-04-25 14:37 14.48541 121.04307 2544 ft 168 kts 131°
2026-04-25 14:37 14.47674 121.05225 2729 ft 188 kts 131°
2026-04-25 14:38 14.46726 121.06240 2944 ft 213 kts 131°
2026-04-25 14:38 14.45668 121.07386 2998 ft 223 kts 131°
2026-04-25 14:38 14.44554 121.08492 3115 ft 224 kts 144°
2026-04-25 14:38 14.43068 121.08997 3356 ft 231 kts 178°
2026-04-25 14:39 14.41508 121.08587 3598 ft 236 kts 210°
2026-04-25 14:39 14.40335 121.07400 3840 ft 240 kts 233°
2026-04-25 14:39 14.39403 121.05967 3963 ft 241 kts 236°
2026-04-25 14:39 14.38513 121.04497 4004 ft 242 kts 237°
2026-04-25 14:40 14.37716 121.02973 3994 ft 242 kts 253°
2026-04-25 14:40 14.37643 121.01256 4005 ft 242 kts 285°
2026-04-25 14:40 14.38232 120.99632 4009 ft 241 kts 295°
2026-04-25 14:40 14.38951 120.98060 4007 ft 242 kts 297°
2026-04-25 14:41 14.39686 120.96496 4007 ft 243 kts 297°
2026-04-25 14:41 14.40421 120.94934 4006 ft 242 kts 297°
2026-04-25 14:41 14.41156 120.93374 4006 ft 241 kts 297°
2026-04-25 14:41 14.41891 120.91822 4009 ft 241 kts 297°
2026-04-25 14:42 14.42625 120.90271 4005 ft 241 kts 297°
2026-04-25 14:42 14.43110 120.89247 4006 ft 239 kts 297°
2026-04-25 14:42 14.44084 120.87198 4003 ft 241 kts 297°
2026-04-25 14:42 14.44816 120.85653 4003 ft 240 kts 296°
2026-04-25 14:43 14.45548 120.84108 3882 ft 239 kts 297°
2026-04-25 14:43 14.46274 120.82571 3553 ft 238 kts 297°
2026-04-25 14:43 14.47127 120.81121 3196 ft 235 kts 317°
2026-04-25 14:43 14.48457 120.80189 3011 ft 231 kts 335°
2026-04-25 14:44 14.49900 120.79455 3000 ft 231 kts 337°
2026-04-25 14:44 14.51348 120.78750 2998 ft 225 kts 337°
2026-04-25 14:44 14.52773 120.78059 3005 ft 227 kts 337°
2026-04-25 14:44 14.54210 120.77365 3003 ft 227 kts 337°
2026-04-25 14:45 14.55642 120.76672 3006 ft 227 kts 337°
2026-04-25 14:45 14.57070 120.75982 3004 ft 227 kts 337°
2026-04-25 14:45 14.58499 120.75291 3005 ft 227 kts 337°
2026-04-25 14:45 14.59927 120.74599 3003 ft 227 kts 337°
2026-04-25 14:46 14.61416 120.74125 2936 ft 223 kts 359°
2026-04-25 14:46 14.62910 120.74385 2778 ft 218 kts 28°
2026-04-25 14:46 14.64104 120.75328 2694 ft 217 kts 53°
2026-04-25 14:46 14.64740 120.76706 2701 ft 214 kts 80°
2026-04-25 14:47 14.64719 120.78240 2699 ft 217 kts 100°
2026-04-25 14:47 14.64547 120.79250 2698 ft 214 kts 99°
2026-04-25 14:47 14.64241 120.81170 2728 ft 190 kts 98°
2026-04-25 14:47 14.64046 120.82450 2725 ft 170 kts 97°
2026-04-25 14:48 14.63876 120.83552 2719 ft 144 kts 97°
2026-04-25 14:48 14.63724 120.84564 2716 ft 143 kts 97°
2026-04-25 14:48 14.63571 120.85584 2713 ft 143 kts 97°
2026-04-25 14:48 14.63388 120.86589 2705 ft 143 kts 103°
2026-04-25 14:49 14.63019 120.87542 2697 ft 144 kts 116°
2026-04-25 14:49 14.62460 120.88403 2703 ft 145 kts 127°
2026-04-25 14:49 14.61797 120.89180 2706 ft 145 kts 128°
2026-04-25 14:49 14.61130 120.89965 2691 ft 146 kts 128°
2026-04-25 14:50 14.60461 120.90756 2488 ft 146 kts 127°
2026-04-25 14:50 14.60023 120.91276 2363 ft 145 kts 127°
2026-04-25 14:50 14.59142 120.92320 2097 ft 145 kts 128°
2026-04-25 14:50 14.58480 120.93103 1911 ft 146 kts 128°
2026-04-25 14:51 14.57825 120.93877 1716 ft 143 kts 128°
2026-04-25 14:51 14.57171 120.94650 1519 ft 141 kts 128°
2026-04-25 14:51 14.56520 120.95417 1325 ft 143 kts 128°
2026-04-25 14:51 14.55862 120.96195 1128 ft 145 kts 128°
2026-04-25 14:52 14.55213 120.96962 968 ft 140 kts 128°
2026-04-25 14:52 14.54565 120.97730 775 ft 142 kts 130°
2026-04-25 14:52 14.53929 120.98502 589 ft 142 kts 129°
2026-04-25 14:52 14.53502 120.99017 425 ft 142 kts 130°
2026-04-25 14:53 14.52648 121.00055 188 ft 141 kts 129°
2026-04-25 14:53 14.51975 121.00807 70 ft 141 kts 137°
2026-04-25 14:53 14.51473 121.01326 64 ft 48 kts 135°
2026-04-25 14:53 14.51347 121.01449 68 ft 12 kts 147°
2026-04-25 14:54 14.51283 121.01433 68 ft 9 kts 233°
2026-04-25 14:54 14.51254 121.01397 66 ft 6 kts 229°
2026-04-25 14:54 14.51230 121.01374 66 ft 4 kts 219°
2026-04-25 14:54 14.51206 121.01366 69 ft 4 kts 186°
2026-04-25 14:55 14.51145 121.01404 62 ft 10 kts 135°
2026-04-25 14:55 14.51095 121.01454 68 ft 10 kts 135°
2026-04-25 14:55 14.51053 121.01500 68 ft 8 kts 134°
2026-04-25 14:55 14.51017 121.01537 68 ft 7 kts 135°
2026-04-25 14:56 14.50982 121.01573 65 ft 9 kts 135°
2026-04-25 14:56 14.50922 121.01600 63 ft 10 kts 193°
2026-04-25 14:56 14.50876 121.01541 69 ft 11 kts 240°
2026-04-25 14:56 14.50834 121.01465 69 ft 13 kts 240°
2026-04-25 14:57 14.50816 121.01409 69 ft 4 kts 305°
2026-04-25 14:57 14.50833 121.01400 63 ft 4 kts 327°
2026-04-25 14:57 14.50866 121.01379 67 ft 7 kts 329°
2026-04-25 14:57 14.50886 121.01368 64 ft 0 kts 330°